Location: Perryvale
(54.4667°N, 113.3833°W)
Time: 23:06:22
(UTC+00:00)

Vanguard 1 - Pass Details

Date: 21 May 2024
Orbit: 652 x 3825 km, 34.2° (Epoch: 13 June)

Event Time Altitude Azimuth Distance (km) Brightness Sun altitude
Rises 05:20:37 0° 233° (SW) 5,025 13.6 -10.3°
Reaches altitude 10° 05:23:49 10° 224° (SW) 4,411 13.2 -10.5°
Maximum altitude 05:35:00 34° 165° (SSE) 3,916 12.6 -11.3°
Drops below altitude 10° 05:52:00 10° 111° (ESE) 6,691 13.9 -12.3°
Sets 05:58:24 0° 104° (ESE) 7,911 14.3 -12.7°
